Location: Unspecified
(49.9820°N, 20.4363°E)
Time: 04:12:54
(UTC+02:00)

Vanguard 3 - Pass Details

Date: 15 May 2026
Orbit: 507 x 3204 km, 33.3° (Epoch: 6 June)

Event Time Altitude Azimuth Distance (km) Brightness Sun altitude
Rises 16:38:43 0° 254° (WSW) 7,066 13.0 32.9°
Reaches altitude 10° 16:43:44 10° 249° (WSW) 6,118 13.0 32.1°
Maximum altitude 17:01:10 44° 187° (S) 3,661 10.9 29.4°
Drops below altitude 10° 17:14:31 10° 122° (ESE) 4,758 10.7 27.2°
Sets 17:17:52 0° 116° (ESE) 5,435 10.9 26.7°
